CAPE
0 0 0 0 0 0 0 0 0 0 0 0 0 0 0 0 22 10 48 299 1177 1686 2092 2133 2452 2241 1956 1788 1630 1459 1388 1356 1223 1142 1060 1052 1085 1216 1383 1526 1584 1517 1053 793 490 322 235 217 354
0 0 0 0 0 0 0 0 0 0 0 0 0 0 1 110 324 150 418 1171 1328 1868 2014 2116 2485 2231 1929 1756 1533 1334 1253 1124 1030 976 1006 1073 1158 1330 1488 1648 1700 1362 930 699 540 323 157 149 190
0 0 0 0 0 0 0 0 0 0 0 0 0 0 0 304 547 107 155 1260 1665 1865 1920 2058 2469 2246 1962 1706 1451 1312 1220 964 877 930 1012 1128 1236 1381 1574 1709 1526 1038 817 706 591 402 226 288 302
0 0 0 0 0 0 0 0 0 0 0 0 0 0 0 630 312 4 1106 1497 1732 1816 1897 2094 2208 2173 1894 1713 1535 1294 1251 1238 938 974 1013 1215 1423 1574 1619 1617 1412 1108 735 644 486 349 310 357 357
0 0 0 0 0 0 0 0 0 0 0 0 0 0 0 232 620 894 1335 1472 1649 1761 2023 2004 2338 2151 1934 1762 1548 1307 1246 1316 1219 985 1016 1047 1323 1480 1535 1538 1392 970 775 668 484 332 327 219 216
0 0 0 0 0 0 0 0 0 0 0 0 0 0 51 613 1083 1153 1204 1255 1586 1758 1967 2088 2264 2099 1898 1779 1509 1316 1241 1361 1414 1196 1020 1072 1291 1387 1417 1410 1333 1166 894 625 420 311 244 261 238
0 0 0 0 0 0 0 0 0 0 0 0 0 0 210 862 925 1145 956 982 1457 1895 1746 1691 1817 1903 1941 1723 1443 1333 1283 1324 1363 1291 1138 1196 1264 1237 1219 1225 1205 1132 975 747 483 274 196 189 124
0 0 0 0 0 0 0 0 0 0 0 0 0 0 0 995 1052 549 709 880 1681 1793 1539 1347 1337 1385 1489 1474 1621 1434 1395 1323 1297 1317 1303 1240 1278 1247 1220 858 964 1017 924 748 602 366 260 210 169
0 0 0 0 0 0 0 0 0 0 0 0 0 0 0 1087 702 904 993 1269 1526 1606 1332 1121 1167 1051 1110 1284 1252 1397 1237 1224 1289 1308 1319 1091 747 922 918 774 956 985 923 842 675 525 386 300 225
0 0 0 0 0 0 0 0 0 0 0 0 0 0 721 1077 895 988 961 938 1155 1083 1074 885 785 746 1019 944 1032 846 776 760 674 678 810 464 413 462 745 799 1121 1105 910 829 793 662 492 283 51
0 0 0 0 0 0 0 0 0 0 0 0 0 0 1355 1154 987 1075 997 923 995 912 937 937 869 972 833 805 850 730 615 532 455 435 235 152 155 367 561 308 514 500 767 299 393 208 199 117 15
0 0 0 0 0 0 0 0 0 0 0 0 0 0 0 1512 1104 1160 1029 901 930 914 840 794 752 628 731 737 634 475 329 298 344 333 104 44 61 97 178 101 57 313 312 281 201 194 148 110 24
0 0 0 0 0 0 0 0 0 0 0 0 0 0 0 0 1460 1156 1074 862 883 921 758 911 623 631 643 632 541 465 307 318 368 333 142 28 26 37 50 67 67 182 315 340 255 156 128 88 4
0 0 0 0 0 0 0 0 0 0 0 0 0 0 0 0 345 1204 989 856 903 986 871 768 692 836 683 626 542 442 349 368 417 397 229 58 4 7 20 13 57 164 320 348 286 163 158 74 19
0 0 0 0 0 0 0 0 0 0 0 0 0 0 0 0 1308 1434 1175 926 1018 1057 782 675 648 691 647 650 614 479 534 462 357 371 298 101 7 9 17 39 43 111 219 264 185 59 28 1 0
0 0 0 0 0 0 0 0 0 0 0 0 0 0 0 0 1063 1368 1373 975 970 1024 868 699 765 763 566 557 529 364 309 278 233 199 215 158 37 32 67 173 131 197 230 188 67 0 0 0 0
0 0 0 0 0 0 0 0 0 0 0 0 0 0 0 0 0 259 1466 1046 943 963 831 568 414 271 201 52 87 60 57 50 59 33 101 141 27 89 173 324 242 115 37 19 0 0 0 0 0
0 0 0 0 0 0 0 0 0 0 0 0 0 0 0 0 0 0 1337 1167 951 716 548 282 136 176 18 0 5 4 2 0 5 4 35 128 122 212 176 153 8 11 1 0 0 0 0 0 0
0 0 0 0 0 0 0 0 0 0 0 0 0 0 0 0 0 0 988 968 704 455 298 156 143 121 108 45 66 103 53 11 47 79 137 251 336 189 137 2 0 0 0 0 0 0 0 0 0
0 0 0 0 0 0 0 0 0 0 0 0 0 0 0 0 0 889 752 584 544 492 362 144 219 233 353 152 102 90 281 242 411 383 330 342 245 140 3 0 0 0 0 0 0 0 0 0 0
0 0 0 0 0 0 0 0 0 0 0 0 0 0 0 0 0 982 1151 728 642 530 371 274 332 311 508 561 510 749 661 629 832 732 458 272 289 92 0 0 0 0 0 0 0 0 0 0 1
0 0 0 0 0 0 0 0 0 0 0 0 0 0 0 0 0 693 1274 1073 727 743 519 407 386 314 354 1105 756 849 910 1031 967 768 266 167 38 4 0 0 0 0 0 0 0 0 0 0 0
0 1 0 0 0 0 0 0 0 0 0 0 0 0 0 0 0 475 967 1257 982 908 795 467 238 137 444 1422 1085 940 832 728 783 254 35 1 1 1 0 0 0 0 0 0 0 0 0 0 0
0 0 6 5 3 1 0 0 0 0 0 0 0 0 0 0 0 125 694 904 1067 927 794 599 123 167 523 1249 1087 1082 958 712 323 25 14 1 2 1 0 0 0 0 0 0 0 0 0 0 0
18 49 15 58 31 3 0 0 0 0 0 0 0 0 0 0 0 0 255 758 938 895 692 480 200 81 234 878 937 751 931 610 139 96 3 2 3 2 0 0 0 0 0 0 0 0 0 0 0
8 10 4 6 0 0 0 0 0 0 0 0 0 0 0 0 0 0 0 441 785 911 831 692 349 20 143 793 650 669 745 462 76 7 3 4 3 2 0 0 0 0 0 0 0 0 0 0 0
2 0 0 4 9 21 0 0 0 0 0 0 0 0 0 0 0 0 0 35 437 766 843 681 362 69 55 809 823 475 215 1 1 3 3 2 1 0 0 0 0 0 0 0 0 0 0 0 0
1 2 2 16 2 0 0 0 0 0 0 0 0 0 0 0 0 0 0 6 254 541 730 599 343 387 35 874 793 38 1 2 2 2 2 1 0 0 0 0 0 0 0 0 0 0 0 0 0
15 1 54 1 0 0 0 0 0 0 0 0 0 0 0 0 0 0 0 149 92 270 267 155 445 904 407 457 26 1 1 1 1 0 0 0 0 0 0 0 0 0 0 0 0 0 0 0 0
1 11 15 28 0 0 0 0 0 0 0 0 0 0 0 0 0 0 0 270 40 53 6 213 987 1058 403 36 1 1 1 1 1 0 0 0 0 0 0 0 0 0 0 0 0 0 0 0 0
CIN
-0 -0 -0 -0 -0 -0 -0 -0 -0 -0 -0 -0 -0 -0 -0 -0 -295 -111 -1018 -845 -729 -541 -401 -316 -220 -248 -298 -301 -262 -241 -263 -245 -238 -220 -225 -223 -187 -132 -84 -33 -9 -5 -33 -53 -110 -132 -147 -152 -92
-0 -0 -0 -0 -0 -0 -0 -0 -0 -0 -0 -0 -0 -0 -137 -195 -353 -756 -769 -686 -657 -528 -408 -318 -205 -224 -277 -317 -329 -293 -254 -284 -277 -275 -244 -210 -169 -101 -55 -24 -6 -15 -53 -90 -120 -171 -212 -199 -180
-0 -0 -0 -0 -0 -0 -0 -0 -0 -0 -0 -0 -0 -0 -0 -173 -341 -684 -950 -659 -559 -476 -420 -341 -220 -223 -264 -295 -358 -320 -291 -306 -300 -273 -223 -195 -152 -101 -48 -26 -26 -45 -54 -64 -81 -122 -158 -113 -90
-0 -0 -0 -0 -0 -0 -0 -0 -0 -0 -0 -0 -0 -0 -0 -323 -400 -358 -677 -607 -528 -463 -398 -332 -294 -256 -274 -290 -305 -332 -274 -242 -267 -243 -192 -146 -104 -64 -47 -35 -36 -38 -68 -83 -118 -150 -157 -132 -120
-0 -0 -0 -0 -0 -0 -0 -0 -0 -0 -0 -0 -0 -0 -0 -413 -692 -670 -621 -549 -524 -460 -372 -343 -273 -273 -278 -280 -273 -298 -252 -206 -190 -227 -188 -162 -98 -69 -48 -35 -34 -89 -116 -133 -177 -216 -209 -227 -206
-0 -0 -0 -0 -0 -0 -0 -0 -0 -0 -0 -0 -0 -0 -93 -605 -600 -602 -616 -576 -493 -454 -368 -314 -238 -250 -269 -261 -279 -281 -246 -208 -162 -176 -175 -137 -87 -76 -50 -28 -31 -45 -75 -122 -173 -205 -227 -224 -211
-0 -0 -0 -0 -0 -0 -0 -0 -0 -0 -0 -0 -0 -0 -187 -495 -588 -584 -630 -609 -482 -377 -356 -331 -290 -255 -234 -251 -290 -263 -239 -213 -185 -165 -146 -118 -100 -95 -71 -41 -33 -44 -62 -94 -144 -182 -184 -157 -203
-0 -0 -0 -0 -0 -0 -0 -0 -0 -0 -0 -0 -0 -0 -0 -377 -505 -643 -612 -581 -383 -355 -362 -367 -363 -347 -307 -276 -245 -259 -229 -224 -204 -157 -128 -116 -73 -63 -55 -101 -79 -65 -55 -62 -87 -131 -129 -164 -155
-0 -0 -0 -0 -0 -0 -0 -0 -0 -0 -0 -0 -0 -0 -0 -410 -511 -531 -494 -413 -361 -340 -378 -425 -412 -422 -382 -328 -299 -243 -245 -228 -185 -142 -127 -154 -211 -161 -143 -147 -91 -54 -33 -37 -70 -84 -109 -130 -123
-0 -0 -0 -0 -0 -0 -0 -0 -0 -0 -0 -0 -0 -0 -298 -387 -481 -493 -489 -482 -434 -443 -446 -480 -490 -489 -404 -402 -348 -357 -341 -314 -307 -281 -236 -307 -294 -261 -165 -134 -38 -15 -35 -37 -30 -46 -82 -126 -247
-0 -0 -0 -0 -0 -0 -0 -0 -0 -0 -0 -0 -0 -0 -152 -276 -316 -409 -499 -528 -516 -490 -465 -463 -474 -430 -442 -434 -392 -388 -382 -369 -365 -371 -427 -421 -394 -288 -203 -270 -193 -157 -87 -196 -149 -205 -241 -290 -389
-0 -0 -0 -0 -0 -0 -0 -0 -0 -0 -0 -0 -0 -0 -0 -124 -238 -277 -404 -484 -507 -485 -499 -494 -480 -500 -450 -426 -431 -466 -481 -450 -406 -412 -495 -517 -496 -431 -317 -392 -431 -233 -202 -219 -248 -238 -257 -269 -343
-0 -0 -0 -0 -0 -0 -0 -0 -0 -0 -0 -0 -0 -0 -0 -0 -171 -237 -222 -405 -471 -485 -521 -460 -501 -463 -440 -421 -444 -449 -488 -463 -444 -459 -538 -654 -619 -578 -513 -417 -412 -302 -216 -177 -245 -307 -303 -295 -127
-0 -0 -0 -0 -0 -0 -0 -0 -0 -0 -0 -0 -0 -0 -0 -0 -320 -207 -243 -369 -477 -478 -497 -475 -457 -383 -397 -397 -424 -457 -469 -462 -438 -425 -487 -594 -733 -672 -556 -547 -408 -325 -259 -222 -230 -265 -290 -340 -329
-0 -0 -0 -0 -0 -0 -0 -0 -0 -0 -0 -0 -0 -0 -0 -0 -146 -207 -325 -415 -522 -528 -491 -486 -436 -386 -396 -385 -411 -468 -434 -441 -436 -442 -473 -559 -646 -717 -537 -505 -467 -369 -336 -252 -244 -399 -409 -34 -0
-0 -0 -0 -0 -0 -0 -0 -0 -0 -0 -0 -0 -0 -0 -0 -0 -217 -235 -282 -379 -417 -437 -461 -454 -397 -386 -404 -413 -419 -492 -504 -475 -470 -475 -481 -467 -576 -628 -518 -392 -353 -312 -297 -280 -393 -0 -0 -0 -0
-0 -0 -0 -0 -0 -0 -0 -0 -0 -0 -0 -0 -0 -0 -0 -0 -0 -258 -277 -398 -445 -473 -439 -495 -478 -515 -511 -595 -555 -601 -588 -575 -553 -587 -485 -475 -564 -526 -445 -309 -351 -514 -502 -546 -0 -0 -0 -0 -0
-0 -0 -0 -0 -0 -0 -0 -0 -0 -0 -0 -0 -0 -0 -0 -0 -0 -0 -299 -344 -401 -474 -466 -483 -562 -551 -697 -13 -691 -648 -147 -153 -601 -548 -473 -441 -466 -407 -406 -420 -132 -700 -164 -0 -0 -0 -0 -0 -0
-0 -0 -0 -0 -0 -0 -0 -0 -0 -0 -0 -0 -0 -0 -0 -0 -0 -0 -324 -354 -420 -488 -551 -607 -602 -637 -597 -622 -557 -530 -539 -538 -480 -462 -423 -363 -307 -400 -468 -426 -0 -0 -0 -0 -0 -0 -0 -0 -0
-0 -0 -0 -0 -0 -0 -0 -0 -0 -0 -0 -0 -0 -0 -0 -0 -0 -292 -330 -414 -445 -537 -581 -648 -553 -566 -502 -565 -558 -517 -429 -404 -303 -327 -295 -268 -345 -435 -543 -0 -0 -0 -0 -0 -0 -0 -0 -0 -0
-0 -0 -0 -0 -0 -0 -0 -0 -0 -0 -0 -0 -0 -0 -0 -0 -0 -239 -231 -369 -396 -440 -517 -588 -557 -559 -428 -409 -382 -316 -290 -265 -191 -200 -236 -292 -338 -468 -0 -0 -0 -0 -0 -0 -0 -0 -0 -0 -0
-0 -0 -0 -0 -0 -0 -0 -0 -0 -0 -0 -0 -0 -0 -0 -0 -0 -268 -228 -267 -370 -422 -493 -504 -518 -531 -482 -291 -314 -298 -255 -221 -219 -187 -295 -334 -417 -439 -0 -0 -0 -0 -0 -0 -0 -0 -0 -0 -0
-0 -3 -0 -0 -0 -0 -0 -0 -0 -0 -0 -0 -0 -0 -0 -0 -0 -308 -239 -274 -380 -415 -438 -516 -584 -585 -456 -230 -275 -285 -258 -283 -223 -315 -393 -0 -0 -0 -0 -0 -0 -0 -0 -0 -0 -0 -0 -0 -0
-0 -1 -41 -32 -46 -5 -0 -0 -0 -0 -0 -0 -0 -0 -0 -0 -0 -363 -324 -331 -339 -379 -405 -429 -616 -534 -412 -255 -288 -282 -254 -263 -326 -382 -369 -0 -0 -0 -0 -0 -0 -0 -0 -0 -0 -0 -0 -0 -0
-36 -17 -10 -2 -2 -0 -0 -0 -0 -0 -0 -0 -0 -0 -0 -0 -0 -0 -415 -293 -282 -317 -420 -480 -552 -607 -507 -322 -283 -295 -231 -285 -361 -340 -281 -0 -0 -0 -0 -0 -0 -0 -0 -0 -0 -0 -0 -0 -0
-25 -21 -3 -6 -0 -0 -0 -0 -0 -0 -0 -0 -0 -0 -0 -0 -0 -0 -0 -380 -323 -330 -383 -420 -502 -302 -417 -326 -299 -263 -243 -246 -343 -390 -3 -0 -0 -0 -0 -0 -0 -0 -0 -0 -0 -0 -0 -0 -0
-9 -8 -0 -19 -42 -4 -0 -0 -0 -0 -0 -0 -0 -0 -0 -0 -0 -0 -0 -491 -341 -311 -365 -445 -525 -611 -479 -279 -229 -270 -322 -0 -0 -0 -0 -0 -0 -0 -0 -0 -0 -0 -0 -0 -0 -0 -0 -0 -0
-0 -4 -0 -1 -13 -0 -0 -0 -0 -0 -0 -0 -0 -0 -0 -0 -0 -0 -0 -607 -440 -378 -380 -422 -508 -458 -630 -224 -211 -326 -0 -0 -0 -0 -0 -0 -0 -0 -0 -0 -0 -0 -0 -0 -0 -0 -0 -0 -0
-13 -6 -0 -0 -0 -0 -0 -0 -0 -0 -0 -0 -0 -0 -0 -0 -0 -0 -0 -500 -546 -448 -442 -486 -405 -258 -350 -280 -323 -0 -0 -0 -0 -0 -0 -0 -0 -0 -0 -0 -0 -0 -0 -0 -0 -0 -0 -0 -0
-0 -3 -6 -0 -0 -0 -0 -0 -0 -0 -0 -0 -0 -0 -0 -0 -0 -0 -0 -440 -613 -593 -677 -421 -186 -184 -304 -466 -0 -0 -0 -0 -0 -0 -0 -0 -0 -0 -0 -0 -0 -0 -0 -0 -0 -0 -0 -0 -0
Wind_Speed
4 2 2 4 3 5 6 9 3 4 4 3 3 4 8 4 6 8 5 9 14 16 15 16 18 19 21 22 21 19 20 20 19 18 18 19 19 18 18 16 14 13 14 13 12 11 10 10 10
2 3 5 3 5 2 8 7 14 8 3 7 6 1 3 3 2 5 5 6 16 17 15 14 17 17 19 21 21 20 19 19 19 18 18 18 18 17 16 14 13 13 13 12 12 11 10 9 10
4 3 5 5 5 11 11 7 5 5 6 2 7 2 2 3 2 7 5 13 15 14 13 17 18 18 19 20 22 20 20 19 19 18 17 17 17 16 14 14 13 13 12 11 10 9 8 8 7
3 4 4 4 11 15 7 4 4 3 4 2 3 7 7 1 6 7 13 17 15 13 12 20 21 19 19 20 20 21 19 19 18 18 16 16 16 14 13 12 12 12 11 11 10 9 9 8 8
4 3 2 5 11 10 4 3 3 5 1 3 4 6 8 4 6 14 18 15 17 13 13 17 20 19 20 20 20 20 19 18 17 17 16 15 15 14 13 12 12 12 12 11 11 10 9 9 8
3 3 2 12 18 2 6 9 3 4 4 4 5 3 6 1 8 10 14 14 14 15 15 14 18 19 19 19 19 19 18 18 17 16 15 14 13 13 12 11 11 11 10 9 9 9 8 8 8
6 4 7 5 6 6 8 7 6 6 6 8 5 4 4 4 7 9 10 11 11 13 14 14 13 15 19 19 19 18 18 18 17 16 14 13 13 13 11 10 9 9 8 7 7 5 4 2 2
5 4 5 7 10 15 3 6 4 10 10 4 6 8 7 2 11 11 11 10 10 13 13 14 14 13 11 12 18 19 17 17 16 15 15 14 12 11 9 8 7 7 6 5 4 3 1 0 2
4 3 9 11 10 8 1 5 0 2 3 2 4 3 5 15 16 15 12 12 12 11 12 12 12 12 13 11 13 16 19 17 16 14 14 11 5 6 7 6 6 6 4 4 3 2 0 2 4
6 6 12 7 12 5 4 1 2 2 1 3 6 5 5 16 17 18 16 18 17 18 15 12 14 14 13 10 11 10 11 7 6 6 7 4 4 4 5 5 5 4 4 2 1 1 1 2 2
7 16 13 3 8 4 6 4 5 5 7 7 7 3 7 9 9 14 17 18 16 17 12 14 15 14 14 11 9 6 6 6 4 7 6 4 3 3 2 2 1 1 3 1 1 0 1 1 1
6 10 18 2 10 4 4 3 7 11 11 6 7 5 4 10 11 11 15 17 19 18 18 13 14 13 13 10 9 8 8 8 7 6 6 4 2 3 2 2 3 3 1 2 2 0 1 2 2
8 3 5 15 17 10 7 10 9 17 5 8 8 10 11 9 15 12 7 11 15 19 18 15 12 12 11 13 10 9 8 9 8 9 10 8 6 5 4 3 2 3 3 3 2 3 2 3 2
3 4 11 13 6 4 15 18 8 23 5 11 8 11 13 9 16 13 15 14 18 16 18 15 13 12 11 11 11 9 8 8 7 7 7 8 7 6 5 3 2 3 3 3 2 2 2 1 1
9 16 16 8 3 7 4 18 27 14 9 10 11 9 11 9 12 19 20 19 22 18 17 18 17 16 14 13 13 10 8 8 8 7 8 9 8 8 5 3 3 3 3 4 2 2 2 3 2
9 4 4 4 12 7 12 28 8 12 11 13 10 9 10 6 16 15 18 16 14 14 18 17 13 13 12 10 9 7 7 7 6 6 6 8 7 7 5 3 3 3 2 2 3 2 3 2 2
3 5 4 6 6 6 15 12 5 9 10 11 10 10 10 8 7 8 16 18 18 16 17 16 14 13 11 7 5 4 5 5 6 5 6 8 6 6 5 3 3 4 3 3 3 2 2 1 1
4 5 4 3 5 6 9 21 8 12 4 8 8 8 8 9 11 11 13 15 14 13 12 13 10 11 8 6 5 4 3 3 3 4 4 6 4 6 5 3 2 4 4 4 2 2 1 2 2
11 15 12 7 9 6 7 7 8 9 12 8 9 8 9 9 6 7 9 12 15 12 13 14 13 12 10 8 8 5 7 4 3 3 6 5 6 6 6 4 4 3 4 3 2 2 3 3 3
11 11 13 6 10 5 8 14 13 10 11 6 8 9 10 6 5 7 9 12 14 18 16 14 14 13 12 8 6 4 5 3 2 4 5 6 6 7 5 6 5 5 4 4 2 3 2 2 4
9 9 5 9 7 11 7 18 14 12 7 6 9 9 7 11 11 10 11 14 13 15 17 17 18 16 12 11 6 4 6 5 3 3 5 5 7 7 7 6 5 5 4 4 3 2 3 3 4
13 9 11 7 2 6 1 9 5 4 9 9 10 9 10 9 9 11 15 12 15 16 15 15 13 14 10 13 11 11 9 7 3 4 4 5 8 8 8 5 6 6 5 5 3 2 3 3 3
10 8 8 7 5 3 4 3 8 7 9 10 8 8 9 6 12 15 16 17 17 16 16 14 12 12 12 13 13 9 6 5 6 7 9 10 8 6 8 6 7 7 5 4 4 4 5 3 3
5 2 4 2 4 7 7 6 6 8 7 3 5 1 5 7 9 14 17 16 15 13 12 12 12 11 12 13 12 12 13 11 9 9 8 8 6 5 7 7 7 6 6 6 5 5 6 5 5
3 5 1 3 5 8 11 11 17 8 8 4 4 2 6 7 6 9 14 15 14 13 14 12 13 11 12 12 10 8 12 13 13 12 10 10 7 5 6 8 8 6 6 6 5 5 5 4 4
6 8 7 6 5 5 12 10 16 20 20 20 16 8 7 8 6 9 12 15 17 17 16 15 15 12 13 12 9 10 12 8 9 9 8 7 6 6 8 9 9 8 7 7 6 5 5 6 5
2 6 7 2 3 2 5 6 17 16 18 15 7 8 8 8 7 10 11 14 15 16 19 19 17 12 13 13 11 11 10 10 10 11 9 8 8 7 8 10 11 10 10 9 8 7 7 6 6
14 5 3 4 3 7 5 7 13 7 15 18 15 9 9 8 8 7 10 15 15 16 16 14 14 14 15 13 11 11 13 13 14 13 12 10 9 9 11 12 12 11 10 9 8 6 6 7 4
3 4 3 2 4 6 3 10 13 9 6 8 7 8 10 10 10 7 8 11 13 13 13 12 15 16 15 13 12 15 13 13 12 14 16 10 10 11 13 11 12 11 11 8 8 6 6 6 5
3 4 7 5 3 4 4 10 4 3 5 7 6 7 7 9 10 7 7 10 12 13 13 15 15 15 14 15 14 14 14 14 15 14 15 11 13 12 11 12 13 11 10 8 8 7 7 8 8
Wind_Direction
275 84 78 44 62 63 260 247 232 216 231 135 234 194 221 201 176 213 309 162 135 141 146 150 150 140 134 129 126 126 127 126 127 126 127 128 129 131 133 132 130 130 129 125 118 113 112 113 113
191 108 43 80 114 163 248 203 220 221 240 334 335 270 262 315 70 94 100 142 140 135 143 146 145 138 134 130 128 129 127 126 128 128 128 127 127 130 129 125 123 125 125 123 119 118 120 121 124
148 50 103 144 169 215 241 196 182 219 271 293 318 283 255 244 149 158 135 140 131 131 138 150 145 141 136 133 131 131 130 128 128 127 128 128 129 129 126 123 123 123 120 117 115 114 113 110 112
139 23 27 136 215 250 202 153 89 25 352 247 312 293 315 65 149 153 134 135 127 133 141 154 149 143 138 135 133 132 131 130 129 126 127 126 124 122 122 122 123 124 124 124 126 129 130 132 135
42 64 171 233 242 250 234 241 243 263 120 248 13 280 293 27 97 134 137 144 140 139 147 155 148 144 140 138 135 131 132 130 129 129 131 132 130 127 128 131 135 141 145 148 149 150 148 147 150
63 102 153 225 233 253 248 228 210 182 171 284 306 264 256 126 123 146 137 148 145 144 151 152 147 145 140 137 136 134 135 132 133 133 134 135 131 131 138 144 148 152 155 157 158 159 160 160 165
155 131 221 229 265 261 236 176 208 217 186 230 231 269 249 182 136 131 123 125 138 139 147 153 150 147 140 139 137 135 135 136 136 135 138 138 140 144 147 152 153 155 162 168 165 163 164 176 184
138 145 220 215 229 263 183 182 189 183 229 219 189 221 255 181 140 116 112 110 127 140 150 156 153 148 135 140 137 137 139 137 137 141 144 148 148 148 152 160 166 164 167 170 165 159 148 21 345
135 205 229 222 191 229 150 186 125 170 232 251 222 247 265 149 136 118 117 127 139 145 154 154 153 151 147 136 141 136 139 140 143 147 151 148 155 157 167 170 182 176 171 180 172 177 289 347 3
168 208 227 182 227 212 206 186 241 318 245 281 309 317 73 147 152 149 157 163 163 166 161 161 159 157 147 145 141 140 142 140 140 145 152 153 145 149 160 179 195 187 190 199 201 323 6 2 342
199 234 239 227 232 230 257 246 206 193 245 207 235 280 121 160 190 179 166 168 167 163 162 169 160 157 153 153 146 144 139 140 145 151 146 152 144 174 161 166 146 140 194 177 195 197 145 211 277
264 239 233 188 228 270 238 208 260 209 226 209 206 257 194 179 193 204 170 166 161 169 171 163 166 162 157 154 156 151 148 160 164 165 152 146 149 156 206 204 170 174 222 196 201 176 277 263 268
244 300 278 238 252 251 280 232 254 255 238 265 264 277 266 214 201 183 190 161 159 171 173 171 168 166 162 161 158 159 159 167 172 170 173 162 166 183 176 210 178 188 187 230 205 208 212 239 262
253 229 259 267 240 241 241 265 263 256 253 245 238 252 262 256 203 161 166 176 172 170 176 170 172 169 165 168 164 163 167 169 168 171 179 177 175 167 188 181 202 196 197 219 206 225 220 226 237
270 277 283 243 249 243 195 279 239 252 245 269 261 240 264 269 168 177 176 183 174 180 168 178 175 178 174 176 172 170 170 164 164 174 183 181 190 160 169 162 202 215 204 218 175 64 55 101 90
332 257 219 235 187 230 158 255 310 212 186 228 233 239 254 229 192 179 175 178 182 166 176 173 175 177 177 175 181 170 164 161 167 175 178 190 181 160 159 157 216 194 175 151 106 98 86 78 54
261 269 261 297 198 189 195 252 266 194 176 227 222 213 228 238 214 205 181 175 176 176 170 169 177 175 167 159 159 139 140 150 169 172 169 181 175 158 134 163 199 150 121 116 119 84 103 101 44
234 267 322 267 9 12 266 251 291 299 183 239 227 227 217 229 213 203 187 175 168 169 167 168 174 167 153 134 119 116 126 127 153 164 162 164 143 136 134 129 159 101 105 96 95 113 69 73 27
249 268 274 281 288 325 266 275 279 275 291 224 239 221 228 225 250 199 166 165 162 163 164 173 168 167 160 162 163 171 181 147 177 150 154 149 133 144 142 114 111 113 103 127 138 97 60 40 18
203 235 267 255 260 239 283 288 283 265 267 240 250 234 224 180 227 163 153 157 172 172 175 173 178 174 177 173 167 148 140 134 146 134 124 143 153 116 109 135 123 110 101 117 100 75 113 72 23
208 209 217 246 251 275 279 277 270 268 231 226 245 244 222 197 184 183 175 173 172 178 181 181 181 178 175 163 142 114 95 95 119 130 142 166 138 120 114 124 119 112 131 117 90 96 90 107 45
240 198 222 193 161 250 112 285 279 246 234 210 215 224 241 183 169 185 187 181 180 192 188 187 178 175 167 160 168 167 171 158 148 124 129 111 106 111 119 136 124 129 113 100 104 115 97 104 91
226 187 192 201 179 155 266 307 272 220 224 231 202 232 245 231 170 179 191 195 195 190 190 183 164 167 170 171 170 163 133 123 125 120 115 107 96 124 112 128 121 110 105 114 117 93 76 72 102
226 189 32 54 140 231 198 200 246 226 220 268 118 207 235 244 193 187 194 197 200 195 186 174 160 165 171 171 164 163 145 144 130 140 125 111 112 107 114 117 106 103 111 107 103 90 84 88 94
120 126 300 245 224 240 176 211 240 267 242 259 122 96 319 304 225 194 188 190 197 192 184 167 157 160 163 164 163 140 146 150 152 143 137 136 123 130 120 110 100 99 101 97 92 90 89 81 85
206 167 167 214 200 250 180 208 238 224 251 256 256 222 243 272 235 210 198 193 189 187 184 174 165 158 165 162 143 126 136 138 143 125 123 119 119 119 117 107 105 96 87 85 81 82 83 80 75
195 209 211 246 207 20 236 279 280 233 239 239 230 188 237 251 258 216 199 194 189 187 187 178 169 158 160 158 136 126 122 118 109 112 117 109 101 114 104 99 91 79 76 76 77 69 68 68 61
214 136 134 171 203 221 236 236 235 177 220 234 240 181 192 257 263 236 202 190 190 189 186 176 166 160 152 144 131 114 117 123 120 114 99 102 97 110 102 87 85 81 74 70 70 64 53 60 40
165 224 192 171 172 195 162 238 230 235 226 225 246 213 203 204 247 250 202 188 184 173 163 155 153 147 144 129 116 114 121 122 124 110 108 107 120 103 92 95 89 79 72 63 68 65 52 61 41
262 279 195 240 223 225 199 259 11 141 250 218 222 203 227 229 237 232 200 160 151 153 148 152 153 141 133 120 122 118 115 113 109 109 105 117 93 83 94 89 82 80 73 61 62 63 50 46 37